| time (UTC) | temp F | wind direction | speed knots | gust knots | rain 1hr in | rain 24hr in | rain mn in | humidity % | barometer mb |
| 20260508014554 | 59 | 307 | 1.7 | 4.3 | 0.00 | 0.00 | 0.00 | 80 | 1013.5 |
| 20260508013053 | 59 | 297 | 1.7 | 3.5 | 0.00 | 0.00 | 0.00 | 80 | 1013.5 |
| 20260508010050 | 60 | 304 | 0.9 | 2.6 | 0.00 | 0.00 | 0.00 | 80 | 1013.9 |
| 20260508004550 | 59 | 307 | 0.9 | 2.6 | 0.00 | 0.00 | 0.00 | 80 | 1013.9 |
| 20260508003048 | 59 | 250 | 0.0 | 0.9 | 0.00 | 0.00 | 0.00 | 80 | 1014.1 |
| 20260508001546 | 59 | 259 | 0.0 | 1.7 | 0.00 | 0.00 | 0.00 | 80 | 1014.1 |
| 20260508000056 | 60 | 257 | 0.0 | 1.7 | 0.00 | 0.00 | 0.00 | 80 | 1014.2 |
| 20260507234547 | 60 | 311 | 0.0 | 1.7 | 0.00 | 0.00 | 0.00 | 79 | 1014.3 |
| 20260507233041 | 60 | 297 | 0.9 | 2.6 | 0.00 | 0.00 | 0.00 | 79 | 1014.3 |
| 20260507231544 | 61 | 314 | 0.9 | 2.6 | 0.00 | 0.00 | 0.00 | 79 | 1014.4 |
| 20260507230038 | 61 | 6 | 0.9 | 3.5 | 0.00 | 0.00 | 0.00 | 79 | 1014.6 |
| 20260507224536 | 61 | 345 | 0.9 | 3.5 | 0.00 | 0.00 | 0.00 | 79 | 1014.7 |
| 20260507223034 | 61 | 356 | 0.9 | 3.5 | 0.00 | 0.00 | 0.00 | 79 | 1014.8 |
| 20260507221532 | 61 | 37 | 0.0 | 0.0 | 0.00 | 0.00 | 0.00 | 81 | 1014.8 |
| 20260507220030 | 61 | 39 | 0.0 | 1.7 | 0.00 | 0.00 | 0.00 | 80 | 1014.9 |
| 20260507214531 | 61 | 48 | 0.0 | 0.9 | 0.00 | 0.00 | 0.00 | 80 | 1014.9 |
| 20260507213037 | 62 | 44 | 0.9 | 2.6 | 0.00 | 0.00 | 0.00 | 80 | 1014.9 |
| 20260507211541 | 62 | 15 | 0.9 | 4.3 | 0.00 | 0.00 | 0.00 | 80 | 1014.9 |
| 20260507210029 | 62 | 105 | 0.0 | 3.5 | 0.00 | 0.00 | 0.00 | 79 | 1014.9 |
| 20260507204528 | 62 | 127 | 0.0 | 2.6 | 0.00 | 0.00 | 0.00 | 79 | 1014.9 |
| 20260507203029 | 62 | 101 | 0.0 | 4.3 | 0.00 | 0.00 | 0.00 | 80 | 1014.8 |
| 20260507201527 | 62 | 38 | 0.9 | 4.3 | 0.00 | 0.00 | 0.00 | 79 | 1014.6 |
| 20260507200027 | 62 | 106 | 1.7 | 3.5 | 0.00 | 0.00 | 0.00 | 80 | 1014.3 |
| 20260507194527 | 62 | 108 | 1.7 | 3.5 | 0.00 | 0.00 | 0.00 | 80 | 1014.2 |
| 20260507193027 | 62 | 109 | 0.0 | 2.6 | 0.00 | 0.00 | 0.00 | 80 | 1014.0 |
| 20260507191527 | 62 | 130 | 0.9 | 6.1 | 0.00 | 0.00 | 0.00 | 80 | 1013.8 |
| 20260507190026 | 62 | 97 | 2.6 | 6.1 | 0.00 | 0.00 | 0.00 | 79 | 1013.7 |
| 20260507184524 | 62 | 169 | 1.7 | 6.1 | 0.00 | 0.00 | 0.00 | 79 | 1013.6 |
| 20260507183025 | 62 | 129 | 2.6 | 7.0 | 0.00 | 0.00 | 0.00 | 79 | 1013.4 |
| 20260507181523 | 62 | 96 | 3.5 | 6.1 | 0.00 | 0.00 | 0.00 | 78 | 1013.2 |
| 20260507180122 | 63 | 101 | 2.6 | 6.1 | 0.00 | 0.00 | 0.00 | 77 | 1013.2 |
| 20260507174540 | 63 | 85 | 2.6 | 7.8 | 0.00 | 0.00 | 0.00 | 77 | 1013.2 |
| 20260507173024 | 63 | 69 | 4.3 | 6.1 | 0.00 | 0.00 | 0.00 | 76 | 1013.4 |
| 20260507171527 | 64 | 121 | 3.5 | 7.0 | 0.00 | 0.00 | 0.00 | 76 | 1013.3 |
| 20260507170024 | 64 | 100 | 3.5 | 7.0 | 0.00 | 0.00 | 0.00 | 75 | 1013.1 |
| 20260507164521 | 64 | 137 | 2.6 | 9.6 | 0.00 | 0.00 | 0.00 | 74 | 1013.1 |
| 20260507163022 | 64 | 70 | 5.2 | 7.8 | 0.00 | 0.00 | 0.00 | 73 | 1012.9 |
| 20260507161521 | 64 | 124 | 3.5 | 7.0 | 0.00 | 0.00 | 0.00 | 73 | 1013.1 |
| 20260507160020 | 65 | 105 | 2.6 | 7.0 | 0.00 | 0.00 | 0.00 | 73 | 1013.0 |
| 20260507154519 | 65 | 127 | 3.5 | 7.0 | 0.00 | 0.00 | 0.00 | 72 | 1013.0 |
| 20260507153018 | 65 | 130 | 5.2 | 7.8 | 0.00 | 0.00 | 0.00 | 72 | 1013.5 |
| 20260507151513 | 65 | 138 | 4.3 | 9.6 | 0.00 | 0.00 | 0.00 | 71 | 1013.4 |
| 20260507150012 | 65 | 141 | 4.3 | 7.8 | 0.00 | 0.00 | 0.00 | 70 | 1013.4 |
| 20260507144512 | 65 | 146 | 3.5 | 8.7 | 0.00 | 0.00 | 0.00 | 70 | 1013.4 |
| 20260507143010 | 65 | 133 | 2.6 | 8.7 | 0.00 | 0.00 | 0.00 | 71 | 1013.5 |
| 20260507141508 | 66 | 83 | 2.6 | 8.7 | 0.00 | 0.00 | 0.00 | 68 | 1013.4 |
| 20260507140009 | 66 | 70 | 2.6 | 9.6 | 0.00 | 0.00 | 0.00 | 69 | 1013.7 |
| 20260507134506 | 66 | 158 | 4.3 | 7.0 | 0.00 | 0.00 | 0.00 | 68 | 1014.1 |
| 20260507133005 | 66 | 114 | 3.5 | 8.7 | 0.00 | 0.00 | 0.00 | 68 | 1014.2 |
| 20260507131503 | 66 | 97 | 3.5 | 7.8 | 0.00 | 0.00 | 0.00 | 68 | 1014.4 |
| 20260507130001 | 65 | 113 | 4.3 | 9.6 | 0.00 | 0.00 | 0.00 | 69 | 1014.5 |
| 20260507124604 | 66 | 152 | 5.2 | 8.7 | 0.00 | 0.00 | 0.00 | 69 | 1014.6 |
| 20260507124503 | 66 | 150 | 5.2 | 8.7 | 0.00 | 0.00 | 0.00 | 69 | 1014.6 |
| 20260507123202 | 65 | 136 | 4.3 | 8.7 | 0.00 | 0.00 | 0.00 | 70 | 1014.8 |
| 20260507121600 | 65 | 128 | 5.2 | 9.6 | 0.00 | 0.00 | 0.00 | 72 | 1014.7 |
| 20260507120057 | 65 | 134 | 7.0 | 9.6 | 0.00 | 0.00 | 0.00 | 70 | 1014.8 |
| 20260507113128 | 65 | 136 | 4.3 | 8.7 | 0.00 | 0.00 | 0.00 | 69 | 1014.9 |
| 20260507111555 | 66 | 89 | 2.6 | 7.0 | 0.00 | 0.00 | 0.00 | 68 | 1014.9 |
| 20260507110053 | 66 | 125 | 3.5 | 8.7 | 0.00 | 0.00 | 0.00 | 70 | 1015.1 |
| 20260507104600 | 66 | 127 | 4.3 | 7.8 | 0.00 | 0.00 | 0.00 | 70 | 1015.1 |
| 20260507103050 | 66 | 122 | 4.3 | 8.7 | 0.00 | 0.00 | 0.00 | 71 | 1015.3 |
| 20260507101553 | 65 | 97 | 2.6 | 7.0 | 0.00 | 0.00 | 0.00 | 73 | 1015.2 |
| 20260507100054 | 65 | 116 | 3.5 | 9.6 | 0.00 | 0.00 | 0.00 | 74 | 1015.5 |
| 20260507094543 | 64 | 105 | 4.3 | 7.8 | 0.00 | 0.00 | 0.00 | 75 | 1015.4 |
| 20260507093041 | 65 | 139 | 3.5 | 7.0 | 0.00 | 0.00 | 0.00 | 73 | 1015.4 |
| 20260507091543 | 63 | 143 | 4.3 | 9.6 | 0.00 | 0.00 | 0.00 | 76 | 1015.4 |
| 20260507090039 | 63 | 96 | 4.3 | 9.6 | 0.00 | 0.00 | 0.00 | 76 | 1015.2 |
| 20260507084549 | 63 | 99 | 4.3 | 9.6 | 0.00 | 0.00 | 0.00 | 76 | 1015.1 |
| 20260507083033 | 63 | 107 | 2.6 | 10.4 | 0.00 | 0.00 | 0.00 | 77 | 1015.2 |
| 20260507081532 | 63 | 95 | 5.2 | 9.6 | 0.00 | 0.00 | 0.00 | 77 | 1015.2 |
| 20260507080030 | 63 | 70 | 3.5 | 7.8 | 0.00 | 0.00 | 0.00 | 77 | 1015.2 |
| 20260507074530 | 62 | 80 | 1.7 | 6.1 | 0.00 | 0.00 | 0.00 | 78 | 1015.1 |
| 20260507073029 | 63 | 86 | 1.7 | 5.2 | 0.00 | 0.00 | 0.00 | 78 | 1015.1 |
| 20260507071534 | 63 | 74 | 1.7 | 6.1 | 0.00 | 0.00 | 0.00 | 76 | 1015.0 |
| 20260507070026 | 62 | 125 | 0.9 | 6.1 | 0.00 | 0.00 | 0.00 | 78 | 1014.9 |
| 20260507064522 | 62 | 89 | 0.9 | 4.3 | 0.00 | 0.00 | 0.00 | 78 | 1014.7 |
| 20260507063020 | 60 | 243 | 0.0 | 0.9 | 0.00 | 0.00 | 0.00 | 78 | 1014.5 |
| 20260507061520 | 60 | 298 | 0.0 | 1.7 | 0.00 | 0.00 | 0.00 | 78 | 1014.4 |
| 20260507060032 | 59 | 235 | 0.0 | 1.7 | 0.00 | 0.00 | 0.00 | 80 | 1014.3 |
| 20260507054532 | 58 | 302 | 0.9 | 2.6 | 0.00 | 0.00 | 0.00 | 81 | 1014.1 |
| 20260507053020 | 58 | 288 | 0.0 | 1.7 | 0.00 | 0.00 | 0.00 | 81 | 1014.1 |
| 20260507051519 | 57 | 304 | 0.9 | 2.6 | 0.00 | 0.00 | 0.00 | 82 | 1013.9 |
| 20260507050041 | 57 | 304 | 1.7 | 2.6 | 0.00 | 0.00 | 0.00 | 82 | 1013.7 |
| 20260507044522 | 57 | 307 | 1.7 | 3.5 | 0.00 | 0.00 | 0.00 | 82 | 1013.8 |
| 20260507041514 | 57 | 307 | 0.9 | 2.6 | 0.00 | 0.00 | 0.00 | 82 | 1013.8 |
| 20260507040015 | 57 | 307 | 0.9 | 1.7 | 0.00 | 0.00 | 0.00 | 82 | 1013.7 |
| 20260507034512 | 57 | 301 | 0.9 | 1.7 | 0.00 | 0.00 | 0.00 | 81 | 1013.8 |
| 20260507033018 | 57 | 290 | 0.0 | 0.9 | 0.00 | 0.00 | 0.00 | 81 | 1013.9 |
| 20260507031509 | 58 | 304 | 0.0 | 1.7 | 0.00 | 0.00 | 0.00 | 81 | 1013.9 |
| 20260507030010 | 58 | 303 | 0.9 | 1.7 | 0.00 | 0.00 | 0.00 | 81 | 1014.0 |
| 20260507024507 | 58 | 303 | 0.9 | 1.7 | 0.00 | 0.00 | 0.00 | 81 | 1013.9 |
| 20260507023006 | 58 | 297 | 0.9 | 2.6 | 0.00 | 0.00 | 0.00 | 81 | 1013.9 |
| 20260507021510 | 59 | 304 | 0.0 | 1.7 | 0.00 | 0.00 | 0.00 | 80 | 1013.8 |
| 20260507020003 | 59 | 311 | 0.9 | 2.6 | 0.00 | 0.00 | 0.00 | 80 | 1014.0 |